This is the latest recevied weather packets stored in our database for station/object KA0EGE. If no packets are shown the sender has not sent any weather packets the latest 10 day(s).
| Time | Temp. | Humidity | Pressure | Rain* | Wind** | Luminosity | Snow |
|---|---|---|---|---|---|---|---|
| 1777699642 | 13.33° C | 99% | 1014.7 hPa | 0 mm | - | 0 W/m² | - |
| 1777699340 | 13.33° C | 99% | 1014.5 hPa | 3.05 mm | - | 0 W/m² | - |
| 1777699038 | 13.33° C | 99% | 1014.3 hPa | 7.87 mm | - | 0 W/m² | - |
| 1777698736 | 13.33° C | 99% | 1014.9 hPa | 10.67 mm | - | 0 W/m² | - |
| 1777698432 | 13.33° C | 99% | 1015.1 hPa | 10.67 mm | - | 0 W/m² | - |
| 1777698128 | 13.33° C | 99% | 1016 hPa | 6.1 mm | - | 0 W/m² | - |
| 1777697825 | 13.33° C | 99% | 1015.6 hPa | 1.27 mm | - | 0 W/m² | - |
| 1777697522 | 13.33° C | 99% | 1015.5 hPa | 1.78 mm | - | 0 W/m² | - |
| 1777697219 | 13.33° C | 99% | 1015.5 hPa | 4.83 mm | - | 0 W/m² | - |
| 1777696915 | 13.33° C | 99% | 1015.8 hPa | 13.72 mm | - | 0 W/m² | - |
| 1777696613 | 13.33° C | 99% | 1015.8 hPa | 12.7 mm | - | 0 W/m² | - |
| 1777696310 | 13.33° C | 99% | 1015.9 hPa | 1.27 mm | - | 0 W/m² | - |
| 1777696009 | 13.33° C | 99% | 1016 hPa | 1.78 mm | - | 0 W/m² | - |
| 1777695707 | 13.33° C | 99% | 1015.8 hPa | 10.67 mm | - | 0 W/m² | - |
| 1777695404 | 13.33° C | 99% | 1015.7 hPa | 16.76 mm | - | 0 W/m² | - |
| 1777695101 | 13.33° C | 99% | 1015.9 hPa | 13.21 mm | - | 0 W/m² | - |
| 1777694798 | 13.33° C | 99% | 1016.4 hPa | 11.94 mm | - | 0 W/m² | - |
| 1777694496 | 13.33° C | 99% | 1016.5 hPa | 8.89 mm | - | 0 W/m² | - |
| 1777694191 | 13.33° C | 99% | 1016.4 hPa | 8.89 mm | - | 0 W/m² | - |
| 1777693888 | 13.89° C | 99% | 1016 hPa | 8.89 mm | - | 0 W/m² | - |
| 1777693587 | 13.89° C | 99% | 1016 hPa | 10.67 mm | - | 0 W/m² | - |
| 1777693285 | 13.89° C | 99% | 1016.2 hPa | 13.72 mm | - | 0 W/m² | - |
| 1777692982 | 13.89° C | 99% | 1016.6 hPa | 11.94 mm | - | 0 W/m² | - |
| 1777692680 | 13.89° C | 99% | 1015.9 hPa | 22.86 mm | - | 0 W/m² | - |
| 1777692375 | 13.89° C | 99% | 1016.3 hPa | 26.42 mm | - | 0 W/m² | - |
* Rain latest hour (hover to see other rain measurements)
** Current wind speed in m/s (hover to see current wind gust speed)